Liberal, KS

3:44 AM CDT on August 19, 2017 (GMT -0500)
Liberal Municipal

Weather History for KLBL - January, 2014

Change the Weather History Date:

Thursday, January 23, 2014

  Actual Average Record
Temperature  
Mean Temperature 14 °F -  
Max Temperature 24 °F 49 °F 73 °F (1943)
Min Temperature 3 °F 21 °F -3 °F (1963)
Degree Days  
Heating Degree Days 52    
Moisture  
Dew Point -1 °F    
Average Humidity 57    
Maximum Humidity 78    
Minimum Humidity 41    
Precipitation  
Precipitation 0.00 in - - ()
Sea Level Pressure  
Sea Level Pressure 30.61 in    
Wind  
Wind Speed 15 mph (North)    
Max Wind Speed 24 mph    
Max Gust Speed 30 mph    
Visibility 9 miles    
Events      
Averages and records for this station are not official NWS values.
T = Trace of Precipitation, MM = Missing Value Source: NWS Daily Summary

Daily Weather History Graph

Daily Weather History Graph

Search for Another Location

Airport or City:

Trip Planner

Search our weather history database for the weather conditions in past years. The results will help you decide how hot, cold, wet, or windy it might be!

Date:

Astronomy

Jan. 23, 2014 Rise Set
Actual Time 7:52 AM CST 5:59 PM CST
Civil Twilight 7:24 AM CST 6:27 PM CST
Nautical Twilight 6:53 AM CST 6:58 PM CST
Astronomical Twilight 6:22 AM CST 7:29 PM CST
Moon 12:22 AM CST (1/23) 11:39 AM CST (1/23)
Length of Visible Light 11h 02m
Length of Day
10h 06m
Waning Gibbous, 55% of the Moon is Illuminated
Jan 23
Waning Gibbous
Jan 23
Last Quarter
Jan 30
New
Feb 6
First Quarter
Feb 14
Full

Hourly Weather History & Observations

Time (CST) Temp. Windchill Dew Point Humidity Pressure Visibility Wind Dir Wind Speed Gust Speed Precip Events Conditions
12:15 AM 24.8 °F 10.7 °F 8.6 °F 50% 30.35 in 10.0 mi ENE 19.6 mph 27.6 mph N/A   Clear
12:35 AM 24.8 °F 10.7 °F 8.6 °F 50% 30.37 in 10.0 mi NE 19.6 mph 24.2 mph N/A   Mostly Cloudy
12:55 AM 23.0 °F 8.3 °F 8.6 °F 54% 30.38 in 10.0 mi ENE 19.6 mph 28.8 mph N/A   Overcast
1:15 AM 21.2 °F 6.8 °F 6.8 °F 54% 30.38 in 10.0 mi NE 17.3 mph 24.2 mph N/A   Overcast
1:35 AM 21.2 °F 6.8 °F 6.8 °F 54% 30.40 in 10.0 mi ENE 17.3 mph - N/A   Overcast
1:55 AM 19.4 °F 2.8 °F 6.8 °F 58% 30.39 in 10.0 mi NE 21.9 mph 27.6 mph N/A   Overcast
2:15 AM 17.6 °F -0.3 °F 3.2 °F 53% 30.40 in 10.0 mi NE 24.2 mph 29.9 mph N/A   Overcast
2:35 AM 17.6 °F 0.1 °F 1.4 °F 49% 30.42 in 10.0 mi NE 23.0 mph 27.6 mph N/A   Overcast
2:55 AM 17.6 °F 0.9 °F 1.4 °F 49% 30.43 in 10.0 mi NNE 20.7 mph - N/A   Overcast
3:15 AM 15.8 °F -1.9 °F 1.4 °F 53% 30.45 in 10.0 mi NE 21.9 mph - N/A   Overcast
3:35 AM 15.8 °F -2.3 °F -0.4 °F 49% 30.46 in 10.0 mi NE 23.0 mph 28.8 mph N/A   Overcast
3:55 AM 14.0 °F -2.0 °F -4.0 °F 45% 30.47 in 10.0 mi NE 16.1 mph 21.9 mph N/A   Overcast
4:15 AM 14.0 °F -2.0 °F -4.0 °F 45% 30.48 in 10.0 mi NE 16.1 mph 23.0 mph N/A   Overcast
4:35 AM 14.0 °F -2.5 °F -4.0 °F 45% 30.49 in 10.0 mi NE 17.3 mph 20.7 mph N/A   Overcast
4:55 AM 12.2 °F -5.3 °F -5.8 °F 45% 30.51 in 10.0 mi NE 18.4 mph 23.0 mph N/A   Overcast
5:15 AM 12.2 °F -4.8 °F -5.8 °F 45% 30.52 in 10.0 mi NE 17.3 mph 24.2 mph N/A   Overcast
5:35 AM 12.2 °F -5.8 °F -5.8 °F 45% 30.52 in 10.0 mi NNE 19.6 mph - N/A   Overcast
5:55 AM 12.2 °F -5.3 °F -7.6 °F 41% 30.53 in 10.0 mi NE 18.4 mph 21.9 mph N/A   Overcast
6:15 AM 10.4 °F -7.7 °F -7.6 °F 44% 30.54 in 10.0 mi NNE 18.4 mph - N/A   Overcast
6:35 AM 10.4 °F -8.2 °F -7.6 °F 44% 30.55 in 10.0 mi NE 19.6 mph 27.6 mph N/A   Mostly Cloudy
6:55 AM 10.4 °F -6.6 °F -9.4 °F 41% 30.57 in 10.0 mi NE 16.1 mph 21.9 mph N/A   Scattered Clouds
7:15 AM 10.4 °F -7.2 °F -9.4 °F 41% 30.60 in 10.0 mi NE 17.3 mph - N/A   Clear
7:35 AM 8.6 °F -7.7 °F -7.6 °F 48% 30.61 in 10.0 mi NNE 13.8 mph 19.6 mph N/A   Clear
7:55 AM 8.6 °F -8.3 °F -7.6 °F 48% 30.63 in 7.0 mi NNE 15.0 mph - N/A   Clear
8:15 AM 8.6 °F -8.3 °F -5.8 °F 52% 30.64 in 6.0 mi NNE 15.0 mph - N/A   Clear
8:35 AM 8.6 °F -6.3 °F -4.0 °F 57% 30.66 in 4.0 mi NNE 11.5 mph - N/A   Scattered Clouds
8:55 AM 6.8 °F -10.7 °F -2.2 °F 67% 30.67 in 1.0 mi NNE 15.0 mph - N/A   Overcast
9:15 AM 6.8 °F -8.6 °F -2.2 °F 67% 30.68 in 1.5 mi NNE 11.5 mph - N/A   Overcast
9:35 AM 6.8 °F -10.0 °F -2.2 °F 67% 30.69 in 2.5 mi NNE 13.8 mph - N/A   Mostly Cloudy
9:55 AM 6.8 °F -11.3 °F -0.4 °F 72% 30.70 in 2.0 mi NNE 16.1 mph - N/A   Mostly Cloudy
10:15 AM 8.6 °F -7.7 °F -0.4 °F 67% 30.72 in 5.0 mi NNE 13.8 mph - N/A   Scattered Clouds
10:35 AM 8.6 °F -7.7 °F -0.4 °F 67% 30.72 in 3.0 mi NNE 13.8 mph - N/A   Mostly Cloudy
10:55 AM 8.6 °F -7.0 °F -0.4 °F 67% 30.73 in 2.5 mi NNE 12.7 mph - N/A   Mostly Cloudy
11:15 AM 10.4 °F -6.0 °F -0.4 °F 62% 30.74 in 3.0 mi North 15.0 mph - N/A   Scattered Clouds
11:35 AM 10.4 °F -4.8 °F -0.4 °F 62% 30.74 in 8.0 mi NNE 12.7 mph - N/A   Partly Cloudy
11:55 AM 10.4 °F -4.1 °F -0.4 °F 62% 30.75 in 10.0 mi North 11.5 mph - N/A   Clear
12:15 PM 10.4 °F -5.4 °F 1.4 °F 67% 30.73 in 10.0 mi North 13.8 mph - N/A   Clear
12:35 PM 12.2 °F -1.8 °F 1.4 °F 62% 30.73 in 10.0 mi NNW 11.5 mph - N/A   Partly Cloudy
12:55 PM 12.2 °F -1.0 °F -0.4 °F 57% 30.73 in 10.0 mi North 10.4 mph - N/A   Clear
1:15 PM 12.2 °F -1.0 °F -0.4 °F 57% 30.72 in 10.0 mi NNW 10.4 mph - N/A   Clear
1:35 PM 12.2 °F -1.8 °F -0.4 °F 57% 30.71 in 10.0 mi NNW 11.5 mph - N/A   Clear
1:55 PM 15.8 °F 3.4 °F 1.4 °F 53% 30.71 in 10.0 mi North 10.4 mph - N/A   Clear
2:15 PM 15.8 °F 4.2 °F 1.4 °F 53% 30.71 in 10.0 mi NNW 9.2 mph - N/A   Clear
2:35 PM 15.8 °F 3.4 °F 1.4 °F 53% 30.70 in 10.0 mi NNW 10.4 mph - N/A   Clear
2:55 PM 15.8 °F 2.7 °F 1.4 °F 53% 30.69 in 10.0 mi NNW 11.5 mph - N/A   Clear
3:15 PM 15.8 °F 2.7 °F 1.4 °F 53% 30.69 in 10.0 mi North 11.5 mph 18.4 mph N/A   Clear
3:35 PM 15.8 °F 2.7 °F 1.4 °F 53% 30.69 in 10.0 mi NW 11.5 mph 16.1 mph N/A   Clear
3:55 PM 15.8 °F 3.4 °F 1.4 °F 53% 30.69 in 10.0 mi NNW 10.4 mph - N/A   Clear
4:15 PM 15.8 °F 5.1 °F -0.4 °F 49% 30.69 in 10.0 mi NNW 8.1 mph - N/A   Clear
4:35 PM 15.8 °F 6.1 °F 1.4 °F 53% 30.69 in 10.0 mi NW 6.9 mph - N/A   Clear
4:55 PM 15.8 °F 5.1 °F 1.4 °F 53% 30.69 in 10.0 mi WNW 8.1 mph - N/A   Clear
5:15 PM 15.8 °F 5.1 °F 1.4 °F 53% 30.69 in 10.0 mi WNW 8.1 mph - N/A   Clear
5:35 PM 14.0 °F 3.9 °F 1.4 °F 57% 30.68 in 10.0 mi West 6.9 mph - N/A   Clear
5:55 PM 12.2 °F 1.7 °F -0.4 °F 57% 30.68 in 10.0 mi West 6.9 mph - N/A   Clear
6:15 PM 10.4 °F -0.4 °F -2.2 °F 57% 30.68 in 10.0 mi West 6.9 mph - N/A   Clear
6:35 PM 8.6 °F -2.6 °F -2.2 °F 62% 30.67 in 10.0 mi West 6.9 mph - N/A   Clear
6:55 PM 6.8 °F -4.8 °F -4.0 °F 61% 30.66 in 10.0 mi West 6.9 mph - N/A   Clear
7:15 PM 6.8 °F -5.9 °F -4.0 °F 61% 30.66 in 10.0 mi West 8.1 mph - N/A   Clear
7:35 PM 6.8 °F -6.9 °F -2.2 °F 67% 30.66 in 10.0 mi West 9.2 mph - N/A   Clear
7:55 PM 5.0 °F -8.1 °F -4.0 °F 66% 30.65 in 10.0 mi West 8.1 mph - N/A   Clear
8:15 PM 3.2 °F -10.3 °F -7.6 °F 61% 30.64 in 10.0 mi West 8.1 mph - N/A   Clear
8:35 PM 3.2 °F -9.1 °F -5.8 °F 66% 30.64 in 10.0 mi WSW 6.9 mph - N/A   Clear
8:55 PM 3.2 °F -9.1 °F -5.8 °F 66% 30.64 in 10.0 mi WSW 6.9 mph - N/A   Clear
9:15 PM 5.0 °F -6.9 °F -2.2 °F 72% 30.63 in 10.0 mi WSW 6.9 mph - N/A   Clear
9:35 PM 5.0 °F -6.9 °F -2.2 °F 72% 30.63 in 10.0 mi WSW 6.9 mph - N/A   Clear
9:55 PM 3.2 °F -10.3 °F -5.8 °F 66% 30.62 in 10.0 mi WSW 8.1 mph - N/A   Clear
10:15 PM 3.2 °F -10.3 °F -2.2 °F 78% 30.62 in 10.0 mi WSW 8.1 mph - N/A   Clear
10:35 PM 5.0 °F -9.1 °F -2.2 °F 72% 30.62 in 10.0 mi WSW 9.2 mph - N/A   Clear
10:55 PM 3.2 °F -9.1 °F -4.0 °F 72% 30.61 in 10.0 mi SW 6.9 mph - N/A   Clear
11:15 PM 5.0 °F -10.0 °F -2.2 °F 72% 30.61 in 10.0 mi SW 10.4 mph - N/A   Clear
11:35 PM 3.2 °F -10.3 °F -4.0 °F 72% 30.60 in 10.0 mi SW 8.1 mph - N/A   Clear
11:55 PM 3.2 °F -10.3 °F -4.0 °F 72% 30.60 in 10.0 mi WSW 8.1 mph - N/A   Clear